Flag for U.S.A. Weather past 2 weeks in Walnut Creek, California, U.S.A.

Now
58 °F

Sunny.


Feels Like: 55 °F
Forecast: 41 / 54 °F
Wind: 13 mph from North

Location: Buchanan Field

Current Time: Dec 25, 2014 at 12:11:17 PM

Latest Report: Dec 25, 2014 at 11:53 AM


Visibility: 10 mi

Pressure: 30.07 "Hg

Humidity: 38%

Dew point: 32 °F

Location of Walnut CreekLocation

Historic Weather in Walnut Creek — Graph

°F

Walnut Creek temperature yesterday

Maximum temperature yesterday: 61 °F (at 12:53 PM)
Minimum temperature yesterday: 45 °F (at 11:53 PM)
Average temperature yesterday: 52 °F

Past Weeks' High & Low Weather Summary

 TemperatureHumidityPressure
High68 °F (Dec 21, 11:53 AM)97% (Dec 13, 5:53 AM)30.28 "Hg (Dec 13, 5:53 AM)
Low38 °F (Dec 25, 4:53 AM)40% (Dec 25, 10:53 AM)29.46 "Hg (Dec 11, 7:53 AM)
Average54 °F83%30.01 "Hg
* Reported Dec 10 10:53 AM — Dec 25 10:53 AM, Walnut Creek, Weather by CustomWeather, © 2014

Note: Actual official high and low records may vary slightly from our data, if they occured in-between our weather recording intervals... More about our weather records

Advertising

Walnut Creek weather history for previous 24 hours

 ConditionsComfort  
Time TempWeatherWind HumidityBarometerVisibility
10:53 AM
Dec 25
56 °FSunny.12 mph40%30.10 "Hg10 mi
9:53 AM51 °FSunny.N/A54%30.12 "Hg10 mi
8:53 AM44 °FSunny.No wind73%30.11 "Hg10 mi
7:53 AM38 °FSunny.5 mph86%30.10 "Hg10 mi
6:53 AM39 °FClear.3 mph82%30.08 "Hg10 mi
5:53 AM38 °FClear.5 mph86%30.07 "Hg10 mi
4:53 AM38 °FClear.3 mph86%30.06 "Hg10 mi
3:53 AM40 °FClear.3 mph86%30.06 "Hg10 mi
2:53 AM42 °FClear.3 mph79%30.06 "Hg10 mi
1:53 AM45 °FClear.No wind68%30.06 "Hg10 mi
12:53 AM48 °FClear.13 mph66%30.06 "Hg10 mi
11:53 PM
Dec 24
45 °FClear.6 mph76%30.04 "Hg10 mi
10:53 PM49 °FClear.6 mph66%30.02 "Hg10 mi
9:53 PM50 °FClear.7 mph63%30.01 "Hg10 mi
8:53 PM51 °FClear.15 mph66%29.98 "Hg10 mi
7:53 PM52 °FClear.17 mph66%29.96 "Hg10 mi
6:53 PM54 °FClear.14 mph62%29.96 "Hg10 mi
5:53 PM55 °FPassing clouds.20 mph59%29.94 "Hg10 mi
4:53 PM56 °FPassing clouds.15 mph67%29.92 "Hg10 mi
3:53 PM58 °FPartly sunny.13 mph70%29.91 "Hg10 mi
2:53 PM57 °FMore clouds than sun.17 mph74%29.90 "Hg10 mi
1:53 PM61 °FMostly cloudy.14 mph72%29.91 "Hg9 mi
12:53 PM61 °FPartly sunny.12 mph70%29.93 "Hg10 mi
Weather by CustomWeather, © 2014

See weather overviewHow to use our weather pages